TimeMST,TemperatureF,Dew PointF,Humidity,Sea Level PressureIn,VisibilityMPH,Wind Direction,Wind SpeedMPH,Gust SpeedMPH,PrecipitationIn,Events,Conditions,WindDirDegrees,DateUTC
12:56 AM,26.6,3.2,37,30.42,10.0,Calm,Calm,-,N/A,,Clear,0,2013-03-01 07:56:00
1:56 AM,23.0,5.0,46,30.46,10.0,SW,3.5,-,N/A,,Clear,230,2013-03-01 08:56:00
2:56 AM,24.1,5.0,44,30.45,10.0,Calm,Calm,-,N/A,,Clear,0,2013-03-01 09:56:00
3:56 AM,21.0,7.0,55,30.45,10.0,SE,3.5,-,N/A,,Clear,130,2013-03-01 10:56:00
4:56 AM,21.0,7.0,55,30.46,10.0,SE,3.5,-,N/A,,Clear,130,2013-03-01 11:56:00
5:56 AM,17.1,6.1,62,30.48,10.0,SSW,3.5,-,N/A,,Clear,210,2013-03-01 12:56:00
6:56 AM,19.0,9.0,65,30.51,10.0,SE,3.5,-,N/A,,Clear,140,2013-03-01 13:56:00
7:56 AM,24.1,9.0,53,30.55,10.0,ESE,4.6,-,N/A,,Clear,110,2013-03-01 14:56:00
8:56 AM,32.0,10.0,40,30.55,10.0,Calm,Calm,-,N/A,,Clear,0,2013-03-01 15:56:00
9:56 AM,39.9,7.0,26,30.52,10.0,Calm,Calm,-,N/A,,Clear,0,2013-03-01 16:56:00
10:56 AM,46.9,7.0,20,30.48,10.0,Calm,Calm,-,N/A,,Clear,0,2013-03-01 17:56:00
11:56 AM,53.1,10.9,19,30.45,10.0,WNW,5.8,-,N/A,,Clear,290,2013-03-01 18:56:00
12:56 PM,57.0,15.1,19,30.40,10.0,North,10.4,17.3,N/A,,Clear,350,2013-03-01 19:56:00
1:56 PM,59.0,16.0,19,30.39,10.0,NNW,10.4,20.7,N/A,,Clear,340,2013-03-01 20:56:00
2:56 PM,60.1,16.0,18,30.37,10.0,North,11.5,-,0.00,,Clear,350,2013-03-01 21:56:00
3:56 PM,61.0,17.1,18,30.36,10.0,NNW,6.9,-,N/A,,Clear,330,2013-03-01 22:56:00
4:56 PM,60.1,17.1,19,30.35,10.0,WNW,5.8,-,N/A,,Clear,300,2013-03-01 23:56:00
5:56 PM,57.9,18.0,21,30.36,10.0,West,8.1,-,N/A,,Clear,280,2013-03-02 00:56:00
6:56 PM,50.0,17.1,27,30.40,10.0,WNW,9.2,-,N/A,,Clear,290,2013-03-02 01:56:00
7:56 PM,45.0,18.0,34,30.40,10.0,West,6.9,-,N/A,,Clear,270,2013-03-02 02:56:00
8:56 PM,42.1,18.0,38,30.41,10.0,West,6.9,-,N/A,,Clear,260,2013-03-02 03:56:00
9:56 PM,39.9,18.0,41,30.40,10.0,West,5.8,-,N/A,,Clear,280,2013-03-02 04:56:00
10:56 PM,35.1,17.1,48,30.41,10.0,SW,4.6,-,N/A,,Clear,230,2013-03-02 05:56:00
11:56 PM,33.1,17.1,52,30.40,10.0,WSW,6.9,-,N/A,,Clear,240,2013-03-02 06:56:00